CZ-6A DEB

Satellite information

Favourite Embed

Satellite Type and Status

DEBRISIN ORBIT

Key statistics

Satellite CZ-6A DEB at a glance.

Uptime

1129

Days in orbit

Revolutions

≈ 14.7

Per day

Orbit

SSO

Sun Synchronous Orbit

Inclination

98.6

Latest

Satellite identification and parameters

Extended collection of information and parameters for CZ-6A DEB.

Object identification

Identified? True

Debris? True

Object name: CZ-6A DEB

International designator: 2022-151ADL

Object number (NORAD): 56588

Object ID (CCSDS): 56588

Country: PEOPLES REPUBLIC OF CHINA (PRC)

Current information (Y/N): Y

RCS size: SMALL

Orbital parameters

Period: 97.79 minutes

Inclination: 98.6446 deg

SMA: 7031.083 km

Apoapsis: 699.843 km

Periapsis: 606.053 km

RAAN: 47.9788 deg

Eccentricy: 0.00666965

Argument of periapsis: 35.4794 deg

Mean anomaly: 325.0821 deg

Mean motion: 14.72547957 rev/day

Mean motion (dot): 0.00019519 rev/day2

B* drag term: 0.0029662701 1/REarth

Two-line elements (TLE)

Creation date: Dec. 11, 2025, 7:14 p.m.

Reference frame: TEME

Reference center: EARTH

Epoch: Dec. 11, 2025, 2:51 p.m. UTC

TLE line 0: 0 CZ-6A DEB

TLE line 1: 1 56588U 22151ADL 25345.61875136 .00019519 00000-0 29663-2 0 9992

TLE line 2: 2 56588 98.6446 47.9788 0066696 35.4794 325.0821 14.72547957149847

Live tracking on map

Real-time ground track for satellite CZ-6A DEB.

In-orbit conjunctions

A list of the most updated potential collisions computed for object CZ-6A DEB.

Target Orbit TCA Probability of collision Miss distance Type
CZ-6A DEB LEO 2025-02-24 01:27:14 0.0001197991 186.0 (m) DEBRIS
CZ-6A DEB LEO 2025-01-10 20:56:47 0.0001072815 337.0 (m) DEBRIS

Associated space launch

Chinese satellite reported for atmospheric/ocean/environmental/spatial parameter research purposes, details TBD.

CZ-6A DEB was lifted into orbit during the mission ‘Long March 6A | Yunhai 3’, on board a Long March 6A space rocket.

The launch took place on Nov. 11, 2022, 10:52 p.m. from Launch Complex 9A.

For more information about the launch, click the button.

Launch to space Long March 6A | Yunhai 3
Long March 6A | Yunhai 3

Agency: N/A

Status: Launch Successful

Launch date: Nov. 11, 2022, 10:52 p.m. UTC

Rocket: Long March 6A

Launch pad: Launch Complex 9A

Location: Taiyuan Satellite Launch Center, People's Republic of China

...

Latest news about this satellite

There are no fresh news available about this satellite. Check back as we update our databases every day.


Newsletter sign-up

Weekly statistics, charts and insights to help you stay on top of the space industry.